Regional Weather Roundup
Issued by NWS

Home | Current Version | Previous Version | Graphics & Text | Print | Product List | Glossary On
Versions: 1 2 3 4 5 6 7 8 9 10 11 12 13 14 15 16 17 18 19 20 21 22 23 24 25 26 27 28 29 30 31 32 33 34 35 36 37 38 39 40 41 42 43 44 45 46 47 48 49 50
682
ASUS44 KLIX 210305
RWRLA
LOUISIANA WEATHER ROUNDUP
NATIONAL WEATHER SERVICE NEW ORLEANS LA
1000 PM CDT SUN APR 20 2014

NOTE: "FAIR" INDICATES FEW OR NO CLOUDS BELOW 12,000 FEET WITH NO
      SIGNIFICANT WEATHER AND/OR OBSTRUCTIONS TO VISIBILITY.
      SKY/WX - SKY CONDITION AND SIGNIFICANT WEATHER.
      TMP - AIR TEMPERATURE.    DP   - DEWPOINT TEMPERATURE.
      RH  - RELATIVE HUMIDITY.  PRES - PRESSURE.
      HX  - HEAT INDEX.         WCI  - WIND CHILL INDEX.

*  THESE STATIONS ARE NOT NWS OR FAA STATIONS AND ARE NOT UNDER
   NWS QUALITY CONTROL.

LAZ040-048-061>063-065-066-069-210400-
SOUTHEAST LOUISIANA

CITY           SKY/WX    TMP DP  RH WIND       PRES   REMARKS
N.O. AUDUBON     N/A     69  62  79 MISG        N/A
N.O. INTL ARPT PTCLDY    68  63  84 SE8       30.12R
N.O. LAKEFRONT CLEAR     66  62  87 SE12      30.14R
N.O. DOWNTOWN* FAIR      68  59  73 SE5       30.14R
SLIDELL        CLEAR     64  59  83 SE6       30.13R
BATON ROUGE    CLEAR     66  55  67 CALM      30.11R
BOOTHVILLE     CLEAR     62  58  86 E7        30.15S
BELLE CHASSE   CLEAR    N/A N/A N/A SE8       30.13R
BOGALUSA*        N/A     67  60  77 SE8       30.15R
GALLIANO*      CLEAR     65  61  86 E5        30.13R
NEW ROADS*     FAIR      69  55  60 S3        30.10R
GONZALES*      FAIR      64  57  77 CALM      30.11R
HAMMOND*       CLEAR     66  57  72 CALM      30.14R
HOUMA*           N/A     65  61  85 S5        30.12R
PORT FOURCHON* CLEAR     68  63  83 SE12      30.15R

$$

LAZ041-044-053-054-210400-
SOUTHWEST LOUISIANA

CITY           SKY/WX    TMP DP  RH WIND       PRES   REMARKS
LAKE CHARLES   CLEAR     64  60  87 SW3       30.10R
LAFAYETTE      CLEAR     67  57  70 SW6       30.11R
PATTERSON      CLEAR     64  61  88 S3        30.16R
SALT POINT       N/A     69  64  84 CALM      30.12R
NEW IBERIA     CLEAR     66  59  78 S5        30.12R
CHENAULT AIRPK CLEAR     68  58  71 SW5       30.11S

$$

LAZ027-028-210400-
CENTRAL LOUISIANA

CITY           SKY/WX    TMP DP  RH WIND       PRES   REMARKS
FORT POLK      CLEAR     68  56  65 S3        30.10R
ALEXANDRIA INT CLEAR     67  57  70 CALM      30.08R
ALEXANDRIA     CLEAR     61  57  87 CALM      30.09R

$$

LAZ001-002-210400-
NORTHWEST LOUISIANA

CITY           SKY/WX    TMP DP  RH WIND       PRES   REMARKS
SHREVEPORT     MOCLDY    67  59  75 CALM      30.07R
BARKSDALE AFB  MOCLDY    67  60  78 CALM      30.08R
DTN SHREVEPORT MOCLDY    66  57  72 CALM      30.08R

$$

LAZ014-016-210400-
NORTHEAST LOUISIANA

CITY           SKY/WX    TMP DP  RH WIND       PRES   REMARKS
MONROE         CLEAR     63  58  83 CALM      30.10R
TALLULAH       CLEAR     67  60  78 E3        30.10R

$$




USA.gov is the U.S. government's official web portal to all federal, state and local government web resources and services.